Theta_e
311 311 314 317 320 319 318 319 323 329 330 332 334 335 337 338 340 337 336 338 337 335 335 334 334 331 330 329 330 330 326 319 311 310 320 322 320 317 323 318 321 319 319
309 310 309 311 313 314 317 316 318 319 327 329 330 333 333 335 335 336 335 337 336 333 333 331 332 334 331 330 328 326 322 317 314 308 319 321 319 316 318 317 321 322 318
307 307 307 307 308 311 313 316 316 317 319 327 328 328 333 334 332 333 334 335 335 334 332 332 331 330 327 327 326 325 324 320 315 315 319 321 321 319 316 317 318 319 321
306 305 304 305 306 308 311 314 314 316 316 318 321 327 329 331 333 333 334 333 332 332 331 331 331 328 326 325 325 324 323 320 319 318 318 314 314 317 316 314 314 318 319
305 305 305 306 307 308 309 311 314 313 317 317 318 319 321 328 331 331 329 328 328 330 331 331 330 327 327 326 326 324 322 319 318 315 312 310 311 313 314 313 311 316 318
304 304 306 307 308 307 308 310 310 313 314 316 316 317 316 320 314 311 318 324 325 324 326 326 327 325 324 319 318 320 322 319 315 315 313 311 309 311 313 312 312 311 311
304 305 306 306 306 306 308 308 309 309 312 313 313 313 312 314 311 308 308 320 325 325 325 326 327 330 323 325 321 316 315 314 316 318 316 314 314 313 315 312 314 315 316
302 303 305 305 305 306 306 306 307 308 309 311 312 312 311 313 306 305 305 315 319 321 324 326 325 326 326 324 326 324 324 324 320 320 319 321 320 323 320 319 317 317 320
302 302 304 304 304 305 304 303 304 305 306 308 310 311 311 311 304 301 305 314 316 319 324 323 325 325 316 308 320 324 326 326 322 312 313 312 312 311 318 322 317 317 314
301 303 304 304 304 303 303 302 303 304 306 309 310 311 310 311 307 302 303 314 313 312 312 314 312 313 305 301 312 316 321 323 326 322 317 313 311 316 312 324 323 318 315
303 304 304 304 303 303 302 301 302 303 305 306 306 307 309 310 311 304 300 310 311 309 307 307 310 304 301 299 300 309 313 320 320 321 318 316 316 317 320 322 324 322 319
303 304 304 303 304 306 303 303 303 302 301 301 303 304 307 309 304 302 300 298 304 305 304 305 308 302 298 299 300 302 300 304 316 323 321 320 318 317 320 323 322 323 323
302 302 301 302 304 304 302 302 302 301 300 301 302 303 304 306 307 299 297 296 297 301 303 303 301 297 296 299 301 300 299 309 312 317 322 323 324 325 324 323 324 323 323
301 301 301 301 301 302 303 302 301 300 299 300 302 303 303 302 303 303 303 299 300 300 301 300 300 299 299 302 303 309 311 312 314 316 319 322 322 320 320 319 318 319 318
300 300 300 300 300 299 300 300 301 302 301 302 303 303 303 300 301 299 298 299 299 298 297 302 303 303 308 310 311 312 314 313 312 315 318 318 317 317 317 317 318 317 315
299 299 299 298 298 298 298 299 299 299 297 295 295 297 301 299 295 294 293 293 293 293 299 302 303 301 305 303 304 307 308 310 314 314 315 316 315 315 315 316 316 314 313
297 297 297 298 297 297 298 298 299 301 296 295 293 292 293 294 294 293 292 293 290 291 299 304 302 299 302 304 301 303 304 307 308 312 314 315 314 313 307 312 313 313 312
298 298 297 296 296 297 298 298 298 298 299 300 295 293 293 292 292 291 291 292 299 296 304 305 305 305 301 299 302 303 303 304 305 306 308 314 312 310 308 310 311 311 311
297 297 296 295 296 297 297 296 297 298 298 298 299 297 294 292 291 292 294 298 302 303 303 304 305 305 305 304 304 304 303 302 301 304 305 306 308 308 306 308 307 298 301
295 295 294 296 295 295 296 295 297 297 297 296 297 298 300 294 297 299 300 302 303 302 303 304 304 304 304 304 304 305 305 305 304 304 303 304 305 306 305 304 304 303 303
297 298 292 296 297 299 300 298 299 301 299 300 299 297 287 300 300 302 302 301 300 301 301 302 302 302 302 303 303 303 303 303 303 304 305 304 304 303 303 303 303 303 302
297 297 298 297 298 299 299 300 300 300 299 298 298 297 289 300 300 301 301 300 301 300 299 302 301 301 301 301 301 301 301 300 301 302 302 302 302 302 302 303 302 301 301
298 298 299 299 300 296 298 297 297 297 296 296 296 296 297 297 298 298 299 299 300 301 301 300 299 299 300 299 298 298 298 297 297 299 300 300 299 299 300 300 301 300 300
297 296 296 296 295 295 295 295 295 292 295 296 296 296 297 297 297 297 298 299 300 299 299 298 297 296 296 297 297 296 294 295 297 296 298 298 297 296 297 298 299 299 298
295 295 294 294 294 294 294 294 295 295 295 295 296 296 296 297 296 297 298 297 297 295 295 295 295 295 295 294 294 294 289 286 292 289 297 298 298 298 298 298 299 298 298
295 295 295 294 294 295 295 294 294 294 294 294 294 294 296 295 295 296 295 294 294 293 293 292 292 291 291 292 291 287 286 286 291 287 296 298 297 297 297 297 297 297 297
Wind_Speed
7 7 8 7 7 7 6 6 6 5 6 6 7 5 5 4 4 2 3 4 5 5 4 4 5 3 5 5 4 4 4 4 5 3 2 3 2 5 6 4 6 5 5
7 8 8 7 7 7 7 7 5 6 6 5 6 6 5 5 4 5 8 6 6 5 4 4 6 4 7 4 4 5 5 4 5 7 4 2 2 2 4 5 4 5 5
7 8 9 8 9 10 8 7 7 5 6 6 5 6 5 4 4 5 5 5 7 6 6 6 6 6 7 5 5 5 5 3 4 4 4 2 2 3 3 2 4 3 3
6 6 7 8 7 7 8 8 7 6 4 5 5 5 6 6 5 5 4 4 5 5 6 7 8 7 8 7 6 6 5 4 3 3 2 2 2 2 3 3 3 3 4
7 7 7 7 7 7 7 10 11 7 5 3 4 6 6 5 4 6 5 4 5 6 6 6 7 8 11 9 4 5 5 4 3 3 1 1 3 3 6 4 4 2 4
5 6 7 7 8 8 9 8 8 9 7 3 3 3 5 4 10 8 5 5 5 5 5 3 5 7 8 10 9 9 7 6 4 4 4 4 4 5 4 5 4 4 3
3 5 6 6 6 7 7 9 10 8 7 7 6 5 6 6 8 9 7 4 5 4 6 5 5 6 6 6 7 8 9 11 9 6 6 7 5 7 6 5 5 4 6
4 5 5 5 5 5 5 6 7 6 7 6 7 6 6 6 7 8 6 5 5 7 4 5 4 6 5 7 8 8 9 8 9 8 9 8 8 6 8 8 9 3 3
6 6 7 5 6 6 7 7 6 5 6 7 7 7 7 8 9 8 3 3 5 6 5 5 6 4 9 9 6 10 12 12 10 13 12 12 10 7 6 6 5 4 2
7 7 7 6 6 6 7 7 4 4 6 5 7 7 8 7 8 10 6 3 4 4 5 6 8 6 8 5 2 6 11 14 11 7 5 7 8 8 15 8 7 7 4
7 7 7 7 7 7 7 4 5 6 5 6 7 7 7 6 8 9 11 5 5 4 4 4 4 6 9 9 5 4 8 11 9 7 6 5 4 5 5 7 9 8 8
7 7 7 7 6 6 7 7 6 6 6 6 6 7 5 6 4 8 10 9 4 3 5 4 6 8 10 14 9 8 10 13 7 7 7 6 6 6 7 8 7 5 8
6 7 6 7 6 6 6 7 5 5 5 6 5 6 7 5 3 7 5 3 4 3 3 8 16 14 13 11 13 13 6 6 7 7 8 8 8 8 8 7 9 10 9
7 7 6 5 6 6 4 4 4 5 5 5 5 6 6 3 3 4 4 3 3 0 3 5 11 14 13 12 9 7 7 6 6 8 8 5 3 4 6 5 5 7 8
6 5 5 4 5 6 5 5 5 6 6 6 6 6 7 5 6 8 7 5 4 4 3 4 8 5 4 4 4 6 5 5 5 7 6 6 5 4 4 4 7 8 10
5 5 5 4 5 4 4 5 8 12 13 12 15 10 4 11 6 7 9 8 7 5 4 2 8 7 6 5 5 6 5 7 6 6 6 5 6 6 6 6 6 7 8
4 5 4 5 4 4 4 5 8 7 10 12 12 14 12 10 10 11 10 9 4 7 3 4 5 4 4 5 5 5 6 5 7 6 6 6 7 6 5 5 5 5 5
6 8 5 5 5 5 6 6 5 5 8 7 8 13 14 16 13 11 10 5 4 3 3 3 4 4 3 4 4 5 5 6 5 5 5 6 5 5 4 5 6 5 7
7 7 7 5 7 8 6 5 5 7 7 6 5 5 7 12 13 12 8 4 3 2 3 3 3 2 3 3 3 4 4 4 4 6 4 3 2 3 3 4 4 4 5
7 12 11 7 7 7 6 5 5 6 6 4 5 5 3 3 4 6 4 5 3 3 1 1 0 2 3 3 3 3 4 5 3 3 4 3 1 2 4 7 4 5 3
8 9 9 7 7 6 5 5 7 5 3 3 4 5 8 4 4 2 2 2 2 3 2 1 1 1 2 3 4 2 3 4 4 4 3 3 2 2 1 3 8 5 6
8 8 7 7 6 5 4 5 3 3 4 3 3 5 8 6 5 4 4 2 2 2 2 1 2 2 2 3 3 3 3 3 4 5 4 3 3 3 2 5 9 4 5
7 9 8 6 3 2 4 5 4 4 4 5 5 5 5 5 5 5 4 3 3 4 4 3 3 3 3 3 3 3 3 3 4 3 3 3 2 2 2 3 7 6 5
7 7 7 8 9 7 6 6 5 6 6 5 5 5 5 4 4 4 4 4 5 4 4 3 4 5 4 3 4 3 3 3 2 2 2 1 2 1 2 3 5 8 6
7 7 7 7 7 6 6 7 7 7 7 6 6 6 6 6 6 5 5 6 5 5 6 5 5 5 6 7 7 7 5 5 4 4 3 3 2 4 3 3 6 7 8
6 7 6 6 6 6 6 7 7 7 7 7 6 6 7 7 6 6 6 7 6 6 6 4 6 9 9 6 7 8 6 5 5 5 3 2 3 3 5 6 8 6 7
Wind_Direction
16 7 16 357 354 353 3 359 355 342 342 342 335 328 324 217 131 157 216 205 204 194 210 230 256 283 263 245 247 223 211 186 206 285 247 210 173 156 156 163 164 176 189
5 7 4 355 355 348 332 329 343 347 334 331 328 327 312 290 248 199 211 201 220 224 216 248 256 244 264 249 227 234 229 208 187 221 202 176 189 164 143 154 186 178 198
12 5 351 349 352 338 327 311 315 335 341 339 338 325 315 311 309 250 245 225 208 212 215 226 238 244 258 256 241 233 235 224 204 187 199 160 131 140 131 179 194 173 217
345 354 341 336 331 326 319 318 301 301 313 336 350 333 315 301 294 286 276 256 237 233 228 229 229 221 236 240 237 231 235 231 213 204 185 157 138 144 117 167 199 183 173
346 337 321 311 318 325 335 335 331 295 285 306 350 347 349 315 292 286 253 251 267 261 238 232 229 230 230 219 208 243 234 222 199 183 209 151 169 154 191 193 186 195 224
3 338 326 339 346 335 337 334 342 333 307 311 338 346 339 327 321 289 284 268 245 263 273 276 290 280 259 250 237 226 212 203 205 176 189 202 219 195 162 180 148 155 250
333 312 314 324 340 339 341 340 337 339 324 314 312 329 321 321 321 306 297 284 286 262 247 245 252 264 301 302 289 258 249 233 219 193 204 202 207 204 173 183 182 193 158
310 303 298 306 317 322 332 340 334 325 330 317 309 319 319 309 343 344 336 301 297 290 272 264 251 271 255 269 275 275 265 254 237 222 215 224 218 217 198 195 187 177 85
321 318 314 321 322 319 322 315 303 314 322 322 307 308 309 302 316 327 314 301 286 285 300 287 269 279 269 267 265 266 266 271 252 235 224 217 209 214 184 145 165 136 132
289 281 286 293 300 292 285 293 268 279 288 305 308 299 284 285 292 285 271 273 273 278 300 303 304 289 299 284 120 293 274 268 265 248 236 250 245 228 209 203 175 177 134
268 270 269 268 267 271 279 263 276 285 276 282 293 283 283 265 281 255 251 244 231 236 250 270 269 263 278 275 261 178 260 292 264 228 224 219 197 198 194 216 194 187 206
260 265 265 267 270 276 269 277 274 274 278 271 271 286 283 281 271 236 246 291 296 269 266 272 277 294 298 297 289 252 254 270 268 250 229 223 215 206 206 205 207 213 230
284 275 276 278 269 268 271 278 286 278 271 280 273 283 288 287 335 125 177 236 261 281 311 307 302 296 294 293 271 263 237 247 250 246 245 230 219 218 208 220 224 221 224
285 280 283 284 289 290 283 268 270 274 270 263 269 273 273 278 189 202 173 184 217 214 324 321 286 276 270 266 288 276 249 218 231 244 238 229 200 192 196 200 222 222 221
280 281 282 277 284 289 273 255 260 254 232 261 266 256 266 255 227 211 200 191 202 156 46 339 305 299 290 273 282 295 298 265 228 242 239 218 198 190 204 200 222 220 216
309 305 296 290 282 279 283 294 252 254 266 255 257 253 265 252 268 218 260 244 215 127 102 243 288 289 301 305 294 294 288 291 265 231 232 228 224 213 219 228 206 203 213
313 299 287 288 291 288 286 282 297 299 250 261 251 247 236 256 242 240 256 262 240 133 201 209 244 266 287 294 288 301 296 284 291 278 248 232 219 227 210 200 188 184 176
326 298 300 288 281 286 278 270 267 281 295 298 260 236 243 233 224 237 244 260 257 174 213 241 249 261 266 278 293 303 297 292 297 294 282 252 200 193 177 189 172 168 166
318 308 298 285 289 282 277 274 268 279 273 270 289 281 236 227 219 229 215 249 221 186 228 238 247 292 284 278 276 278 286 297 300 292 286 294 269 182 175 160 138 146 140
291 275 270 286 285 279 277 274 276 272 268 269 290 296 278 175 199 217 215 206 195 175 244 211 46 303 306 293 293 312 320 294 292 301 299 304 328 288 203 138 137 138 123
297 292 280 273 267 270 282 289 283 290 293 320 320 322 282 239 217 198 164 132 147 133 81 40 353 325 314 309 310 4 356 330 343 330 312 330 327 248 193 141 122 116 115
295 290 282 273 265 269 277 289 348 9 42 23 342 356 1 43 24 85 98 65 46 73 75 35 57 18 343 342 340 337 34 345 355 349 339 15 19 342 254 159 101 115 124
333 342 1 0 319 357 29 45 36 36 50 32 11 13 23 31 33 31 36 36 29 41 36 28 29 21 2 7 358 350 2 341 326 340 331 351 25 347 328 69 119 118 119
5 14 23 31 34 45 43 42 40 38 38 32 25 17 27 29 23 22 21 29 47 42 28 27 29 22 13 3 343 359 353 332 330 332 334 189 128 97 100 104 104 106 108
22 24 33 33 32 35 42 41 39 35 36 34 28 28 36 34 28 24 39 47 40 32 24 18 14 8 5 4 359 345 351 340 352 13 14 56 161 122 115 108 105 107 105
26 33 38 40 35 35 47 53 54 43 38 34 39 38 33 32 33 46 42 44 29 24 28 14 13 11 360 352 353 334 338 348 347 18 18 348 78 83 80 80 80 83 94